Вернуться в каталог

ARIANE 1 DEB

АктивенHEO
NORAD 48343·DEBRIS·🇪🇺 EU

Запущен Jun 19, 1981 с Guiana Space Centre

Loading…

Ближайшие Пролёты (ближайшие 24 часа)

TLE

СвежийSource: Space-Track

Эпоха: Sep 14, 2026, 10:59 UTC

1 48343U 81057G   26257.45812550 -.00000131  00000-0 -16144-3 0  9991
2 48343  11.0152 285.4480 6664834  99.8528 352.8883  2.87679488132904

Отслеживайте ARIANE 1 DEB в реальном времени с AllMySat

Download on the App Store